Regional Weather Roundup
Issued by NWS

Home | Current Version | Previous Version | Text Only | Print | Product List | Glossary Off
Versions: 1 2 3 4 5 6 7 8 9 10 11 12 13 14 15 16 17 18 19 20 21 22 23 24 25 26 27 28 29 30 31 32 33 34 35 36 37 38 39 40 41 42 43 44 45 46 47 48 49 50

000
ASUS45 KABQ 270610
RWRNM
WEATHER ROUNDUP FOR NEW MEXICO
NATIONAL WEATHER SERVICE ALBUQUERQUE NM
1200 AM MDT MON APR 27 2015

NOTE: "FAIR" MEANS FEW OR NO CLOUDS BELOW 12,000 FEET AGL WITH NO
       SIGNIFICANT WEATHER OR OBSTRUCTIONS TO VISION.

      THIS PRODUCT IS RELEASED AS TWO VERSIONS.  ONE VERSION NEAR
      THE TOP OF THE HOUR CONTAINING PRELIMINARY DATA FROM ALBUQUERQUE
      AND OTHER STATIONS.  A FINAL VERSION WITH ADDITIONAL DATA IS
      ISSUED ABOUT 10 MINUTES AFTER THE HOUR.

NMZ501-503-504-510>518-270700-
NORTHWEST PLATEAU/NORTHCENTRAL MOUNTAINS

CITY           SKY/WX    TMP DP  RH WIND       PRES   REMARKS
FARMINGTON     CLOUDY    44  42  93 N6        29.88R
6HR MIN TEMP:  44; 6HR MAX TEMP:  47; 6HR PCP:  0.01;

LOS ALAMOS     DRIZZLE   40  36  86 N13G25    29.93R WCI  32
SANTA FE       LGT RAIN  42  37  82 CALM      29.90R
6HR MIN TEMP:  39; 6HR MAX TEMP:  47; 6HR PCP:  0.02;

TAOS           CLOUDY    34  27  75 N5        29.96R WCI  30
ANGEL FIRE     LGT SNOW  32  32  99 N5        29.93S WCI  27

$$
NMZ402-403-502-505>509-270700-
WESTCENTRAL MOUNTAINS/SOUTHWEST MOUNTAINS

CITY           SKY/WX    TMP DP  RH WIND       PRES   REMARKS
GALLUP         LGT RAIN  42  39  89 E7        29.93R
6HR MIN TEMP:  42; 6HR MAX TEMP:  47; 6HR PCP:  0.04;

GRANTS         DRIZZLE   39  38  96 NW7       29.92S WCI  34
SILVER CITY      N/A     39  36  87 NW9       29.93S WCI  33

$$
NMZ407-409-411-412-270700-
SOUTHERN DESERTS

CITY           SKY/WX    TMP DP  RH WIND       PRES   REMARKS
LORDSBURG      FAIR      45  41  87 W7        29.92S
DEMING         MOCLDY    47  40  76 W7        29.89F
6HR MIN TEMP:  47; 6HR MAX TEMP:  59;

LAS CRUCES     CLEAR     47  37  67 W13       29.88R
HOLLOMAN AFB   PTCLDY    46  39  76 NE6       29.82S
ALAMOGORDO     PTCLDY    46  36  66 NW6       29.84R
T OR C         PTCLDY    50  36  58 NW10      29.85R
6HR MIN TEMP:  50; 6HR MAX TEMP:  60;


$$
NMZ519>523-270700-
CENTRAL VALLEYS/CENTRAL HIGHLANDS

CITY           SKY/WX    TMP DP  RH WIND       PRES   REMARKS
ALBUQUERQUE    MOCLDY    46  41  82 NW3       29.88R
6HR MIN TEMP:  46; 6HR MAX TEMP:  50; 6HR PCP:  0.01;

DOUBLE EAGLE   MOCLDY    41  39  94 CALM      29.89R
MORIARTY ARPT  CLOUDY    40  37  89 NE8       29.90R WCI  35
6HR MIN TEMP:  37; 6HR MAX TEMP:  43; 6HR PCP:  0.10;

CLINES CORNERS LGT SNOW  35  32  88 NE15      29.89R FOG     WCI  25
6HR MIN TEMP:  35; 6HR MAX TEMP:  44; 6HR PCP:  0.06;

BELEN          CLOUDY    43  41  93 SW3       29.88R
6HR MIN TEMP:  43; 6HR MAX TEMP:  50; 6HR PCP:  0.19;

SOCORRO        RAIN      45  41  88 NW12G17   29.88R
6HR MIN TEMP:  42; 6HR MAX TEMP:  50; 6HR PCP:  0.08;


$$
NMZ524>526-539-540-270700-
SOUTHCENTRAL MOUNTAINS

CITY           SKY/WX    TMP DP  RH WIND       PRES   REMARKS
RUIDOSO        PTCLDY    37  36  93 NW7       29.88S WCI  32

$$
NMZ527>531-270700-
NORTHEAST HIGHLANDS/NORTHEAST PLAINS

CITY           SKY/WX    TMP DP  RH WIND       PRES   REMARKS
LAS VEGAS      LGT SNOW  32  31  96 N12       29.93S FOG     WCI  23
6HR MIN TEMP:  32; 6HR MAX TEMP:  46; 6HR PCP:  0.29;

RATON          CLOUDY    42  36  79 N16       29.95R
6HR MIN TEMP:  42; 6HR MAX TEMP:  46; 6HR PCP:  0.01;

CLAYTON        LGT RAIN  45  43  93 NE18      29.93R FOG
6HR MIN TEMP:  45; 6HR MAX TEMP:  50; 6HR PCP:  0.03;


$$
NMZ532>537-270700-
EASTCENTRAL PLAINS

CITY           SKY/WX    TMP DP  RH WIND       PRES   REMARKS
TUCUMCARI      LGT RAIN  49  45  86 E21G26    29.84R
6HR MIN TEMP:  49; 6HR MAX TEMP:  68; 6HR PCP: TRACE;

CANNON AFB     MOCLDY    50  46  87 E18G26    29.81R
6HR MIN TEMP:  49; 6HR MAX TEMP:  65; 6HR PCP: TRACE;

CLOVIS AIRPORT PTCLDY    48  45  87 E18       29.82R

$$
NMZ028-029-538-270700-
SOUTHEAST PLAINS

CITY           SKY/WX    TMP DP  RH WIND       PRES   REMARKS
ROSWELL        CLOUDY    55  39  54 N3        29.79R
6HR MIN TEMP:  55; 6HR MAX TEMP:  67; 6HR PCP: TRACE;

ARTESIA        MOCLDY    55  37  50 W7        29.80R
CARLSBAD       CLEAR     56  34  43 NW7       29.78R
6HR MIN TEMP:  54; 6HR MAX TEMP:  66;

HOBBS          CLEAR     48  39  71 W6        29.79R


$$


USA.gov is the U.S. government's official web portal to all federal, state and local government web resources and services.